Regional Weather Roundup
Issued by NWS Sioux Falls, SD

Home | Current Version | Previous Version | Graphics & Text | Print | Product List | Glossary On
Versions: 1 2 3 4 5 6 7 8 9 10 11 12 13 14 15 16 17 18 19 20 21 22 23 24 25 26 27 28 29 30 31 32 33 34 35 36 37 38 39 40 41 42 43 44 45 46 47 48 49 50
774
ASUS43 KFSD 062110
RWRFSD

WEATHER ROUNDUP FOR SE SOUTH DAKOTA/SW MINNESOTA/NW IOWA
NATIONAL WEATHER SERVICE SIOUX FALLS SD
300 PM CST SAT FEB 06 2016

NOTE: "FAIR" INDICATES FEW OR NO CLOUDS BELOW 12,000 FEET WITH NO
SIGNIFICANT WEATHER AND OR OBSTRUCTIONS TO VISIBILITY.


SDZ038>040-050-052>070-062200-
SOUTHEAST SOUTH DAKOTA

CITY           SKY/WX    TMP DP  RH WIND       PRES   REMARKS
BROOKINGS      CLOUDY    35  28  75 S13       29.86F WCI  26
CHAMBERLAIN    MOSUNNY   43  32  65 S6        29.84F
HURON          CLOUDY    39  31  72 S12       29.83F
MADISON        FAIR      34  34 100 SW13G20   29.87F WCI  25
MITCHELL       CLOUDY    42  31  64 S12       29.87F
SIOUX FALLS    CLOUDY    34  25  69 S14       29.91F WCI  25
WINNER         FAIR      45  30  55 SW17      29.84F
YANKTON        CLOUDY    37  25  60 S12       29.94F
$$

MNZ071-072-080-081-089-090-097-098-062200-
SOUTHWEST MINNESOTA

CITY           SKY/WX    TMP DP  RH WIND       PRES   REMARKS
FAIRMONT       MOSUNNY   34  27  75 S17       29.96F WCI  23
JACKSON        MOSUNNY   34  27  75 S17       29.95F WCI  23
LUVERNE        MOSUNNY   34  28  80 S14       29.93F WCI  24
MARSHALL       MOSUNNY   38  24  57 SW24      29.83F
MONTEVIDEO     CLOUDY    39  28  65 SW14      29.83F
PIPESTONE        N/A     36  21  55 SW16      29.88F
REDWOOD FALLS  CLOUDY    36  26  67 SW20G25   29.88F
TRACY          MOSUNNY   35  27  72 SW26G32   29.86F WCI  22
WINDOM         MOSUNNY   36  27  69 S15G22    29.92F
WORTHINGTON    CLOUDY    34  25  69 S21G26    29.93F WCI  22
$$

IAZ001>003-012>014-020>022-031-032-NEZ013-014-SDZ071-062200-
NORTHWEST IOWA

CITY           SKY/WX    TMP DP  RH WIND       PRES   REMARKS
CHEROKEE       MOSUNNY   36  29  73 SW18G25   30.01F
DENISON        MOSUNNY   34  30  86 S12G18    30.04F WCI  25
ESTHERVILLE    MOSUNNY   34  28  79 S14       29.97F WCI  25
LE MARS        CLOUDY    36  30  80 S16G22    29.99F
ORANGE CITY    CLOUDY    34  30  86 S16       29.97F WCI  23
SHELDON        CLOUDY    34  28  80 S20       29.95F WCI  22
SIOUX CITY     CLOUDY    39  26  59 S15       30.02F
SPENCER        CLOUDY    35  27  72 S15       29.98F WCI  25
STORM LAKE     MIX PCPN  34  32  93 SW18      30.01F WCI  23
$$

ABBREVIATIONS USED IN REMARKS
   TC - TEMPERATURE IN CELSIUS
  WCI - WIND CHILL INDEX
   HX - HEAT INDEX
  VSB - VISIBILITY





USA.gov is the U.S. government's official web portal to all federal, state and local government web resources and services.